Volver al catálogo

CZ-4 DEB

ActivoSSO
NORAD 29043·DEBRIS·🇨🇳 China

Lanzado Sep 8, 2004 desde Taiyuan Satellite Launch Center

Loading…

Próximos Pases (próximas 24 horas)

TLE

ActualizadoSource: Space-Track

Época: Sep 14, 2026, 07:13 UTC

1 29043U 04035K   26257.30115541  .00001543  00000-0  98466-4 0  9992
2 29043  97.5725 279.1328 0002095 135.8489 224.2908 15.10168661132852

Sigue CZ-4 DEB en tiempo real con AllMySat

Download on the App Store